Weather in Novopichugovo

Russia / Novosibirsk Oblast     54°36′32″N   82°20′45″E
temp.,
°C
wind,
m/s
gust,
m/s
humid.,
%
clouds,
%
prec.,
mm/h
press.,
hPa
HPBL,
m
19 september, sun
sun1901:00+9sw5756100 0.0 1010882
04:00+8ssw6106083 0.0 1009466
07:00+6s61367100 0.0 1008414
10:00+9ssw71358100 0.0 1006672
13:00+14ssw7114591 0.0 10041250
16:00+14wsw9134696 0.0 10031505
19:00+10wsw710597 0.0 10051132
22:00+9w6106893 0.1 10061034
20 september, mon
mon2001:00+6wsw51173100 0.3 1007578
04:00+6sw6117457 0.0 1008819
07:00+4sw71281100 0.0 1010840
10:00+5sw91377100 0.0 10101161
13:00+6sw91376100 0.4 10111346
16:00+6wsw91478100 1.3 10111354
19:00+5wsw71183100 1.9 10121034
22:00+4wsw61087100 0.1 1012713
21 september, tue
tue2101:00+3wsw7987100 0.3 1012834
04:00+2w7980100 0.1 1013916
07:00+3wsw6980100 0.1 1014698
10:00+2wsw81296100 0.3 1014667
13:00+4w71197100 1.8 1016766
16:00+4w71090100 0.5 1017766
19:00+4wnw5881100 0.6 1019730
22:00+4w4877100 0.1 1019571
22 september, wed
wed2201:00+4w4778100 0.2 1020438
04:00+3w5788100 0.2 1020371
07:00+2wsw4795100 0.3 1021369
10:00+3wsw5784100 0.1 1021694
13:00+4wsw568385 0.3 1021737
16:00+5wsw687485 0.3 10201029
19:00+4wsw5779100 0.6 1020789
22:00+3wsw4886100 0.1 1021572
23 september, thu
thu2301:00+2wsw488599 0.2 1020420
04:00+2sw5888100 0.0 1020485
07:00+2sw5998100 0.4 1020381
10:00+2sw4699100 1.1 1020388
13:00+2wsw3498100 2.3 1021298
16:00+3wnw2398100 1.1 1021353
19:00+2nnw3598100 1.7 1023433
22:00+2nnw469497 0.4 1024459